STARLINK-5934 (56017 NORAD) Tracking and Keplerian Element Data

This shows tracking and keplerian element data for the satellite.

Feedback or suggestion? Click here.




ElementValue
Catalog56017
NameSTARLINK-5934
Epoch Orbit720
Epoch Day127.25001157
Epoch Year2023
RAAN291.7252
Inclination43.0001
Eccentricity0.0001454
Argument of Perigee270.0169
Mean Anonmoly271.5812
Mean Motion15.54411221
Decay Rate-0.00886355
L11 56017U 23042AH 23127.25001157 -.00886355 00000+0 -14453-1 0 9990
L22 56017 43.0001 291.7252 0001454 270.0169 271.5812 15.54411221 7207



Live tracking and technical data element details for STARLINK-5934 (NORAD 56017). STARLINK-5934 can be tracked NOW for your location showing map with azimuth and elevation plus other details from your city location.







IsCatalogInMostPopularTable: catalog: 56017, numindb: -1

Insert: records affected: 1


GetName: 56017 STARLINK-5934

Hit Count: inserted at: Mon, 05 Jun 2023 01:06:31 GMT